Home   Weather   Weymouth   Past weeks

Flag for United Kingdom Past Weather in Weymouth, England, United Kingdom — Yesterday and Last 2 Weeks

Now
51 °F

Fog.


Feels Like: 45 °F
Forecast: N/A
Wind: 16 mph from East

Location: Isle Of Portland

Current Time: Dec 5, 2016 at 4:47:19 pm

Latest Report: Dec 5, 2016 at 4:00 pm


Visibility: 4 mi

Pressure: 30.19 "Hg

Humidity: 94%

Dew Point: 49 °F

Location of WeymouthLocation

Past Weather in Weymouth — Graph

°F

Weymouth Temperature Yesterday

Maximum temperature yesterday: 47 °F (at 11:00 pm)
Minimum temperature yesterday: 40 °F (at 6:00 am)
Average temperature yesterday: 44 °F

High & Low Weather Summary for the Past Weeks

 TemperatureHumidityPressure
High54 °F (Nov 21, 10:00 am)99% (Nov 21, 4:00 am)30.58 "Hg (Nov 21, 4:00 am)
Low37 °F (Nov 29, 8:00 am)50% (Dec 1, 10:00 pm)29.00 "Hg (Nov 21, 11:00 am)
Average45 °F83%30.09 "Hg
* Reported Nov 20 3:00 pm — Dec 5 3:00 pm, Weymouth, Weather by CustomWeather, © 2016

Note: Actual official high and low records may vary slightly from our data, if they occured in-between our weather recording intervals... More about our weather records

Advertising

Weymouth Weather History for the Previous 24 Hours

Scroll right to see more
 ConditionsComfort  
Time TempWeatherWind HumidityBarometerVisibility
3:00 pm
Mon, Dec 5
51 °FSmoke.16 mph92%30.18 "Hg6 mi
2:00 pm51 °FCool.17 mph91%30.17 "Hg6 mi
1:00 pm51 °FCool.17 mph90%30.18 "Hg6 mi
12:00 pm51 °FSmoke.15 mph89%30.19 "Hg6 mi
11:00 am52 °FCool.20 mph84%30.19 "Hg7 mi
10:00 am51 °FCool.20 mph87%30.18 "Hg8 mi
9:00 am49 °FCool.22 mph88%30.16 "Hg7 mi
8:00 am49 °FSmoke.21 mph92%30.16 "Hg6 mi
7:00 am46 °FFog.21 mph97%30.15 "Hg3 mi
6:00 am45 °FFog.22 mph97%30.14 "Hg3 mi
5:00 am45 °FFog.20 mph96%30.14 "Hg3 mi
4:00 am46 °FFog.21 mph94%30.14 "Hg4 mi
3:00 am46 °FSmoke.16 mph93%30.14 "Hg3 mi
12:00 am48 °FSmoke.24 mph90%30.14 "Hg6 mi
11:00 pm
Sun, Dec 4
47 °FSmoke.24 mph90%30.14 "Hg6 mi
10:00 pm46 °FCool.23 mph89%30.14 "Hg6 mi
9:00 pm46 °FCool.25 mph87%30.14 "Hg7 mi
8:00 pm46 °FCool.26 mph85%30.14 "Hg9 mi
7:00 pm45 °FCool.26 mph83%30.14 "Hg10 mi
6:00 pm46 °FCool.28 mph84%30.13 "Hg9 mi
5:00 pm45 °FCool.26 mph85%30.12 "Hg8 mi
4:00 pm45 °FCool.28 mph80%30.12 "Hg11 mi
Weather by CustomWeather, © 2016

See weather overviewHow to use our weather pages